Time,TemperatureF,DewpointF,PressureIn,WindDirection,WindDirectionDegrees,WindSpeedMPH,WindSpeedGustMPH,Humidity,HourlyPrecipIn,Conditions,Clouds,dailyrainin,SoftwareType,DateUTC
2013-02-01 00:00:00,37.1,30.6,30.05,North,4,0.0,1.0,77,0.00,,,0.00,Wunderground v.1.15,2013-02-01 05:00:00,
2013-02-01 00:05:00,37.3,30.7,30.05,NE,54,0.0,1.0,77,0.00,,,0.00,Wunderground v.1.15,2013-02-01 05:05:00,
2013-02-01 00:10:00,37.5,30.6,30.05,SE,127,0.0,0.0,76,0.00,,,0.00,Wunderground v.1.15,2013-02-01 05:10:00,
2013-02-01 00:19:00,37.9,30.7,30.05,East,88,0.0,0.0,75,0.00,,,0.00,Wunderground v.1.15,2013-02-01 05:19:00,
2013-02-01 00:24:00,38.3,30.7,30.05,South,189,0.0,1.0,74,0.00,,,0.00,Wunderground v.1.15,2013-02-01 05:24:00,
2013-02-01 00:29:00,38.5,30.9,30.05,SSW,203,0.0,0.0,74,0.00,,,0.00,Wunderground v.1.15,2013-02-01 05:29:00,
2013-02-01 00:34:00,38.8,31.2,30.05,SE,125,0.0,0.0,74,0.00,,,0.00,Wunderground v.1.15,2013-02-01 05:34:00,
2013-02-01 00:40:00,39.0,31.1,30.05,West,275,0.0,0.0,73,0.00,,,0.00,Wunderground v.1.15,2013-02-01 05:40:00,
2013-02-01 00:45:00,39.2,31.6,30.05,ESE,116,0.0,0.0,74,0.00,,,0.00,Wunderground v.1.15,2013-02-01 05:45:00,
2013-02-01 00:50:00,39.5,31.6,30.06,West,273,1.0,1.0,73,0.00,,,0.00,Wunderground v.1.15,2013-02-01 05:50:00,
2013-02-01 00:55:00,39.7,32.4,30.07,West,273,0.0,1.0,75,0.00,,,0.00,Wunderground v.1.15,2013-02-01 05:55:00,
2013-02-01 01:00:00,39.8,31.8,30.07,West,278,0.0,0.0,73,0.00,,,0.00,Wunderground v.1.15,2013-02-01 06:00:00,
2013-02-01 01:09:00,40.4,31.7,30.07,SSW,194,3.0,3.0,71,0.00,,,0.00,Wunderground v.1.15,2013-02-01 06:09:00,
2013-02-01 01:15:00,41.1,32.4,30.08,West,273,4.0,4.0,71,0.00,,,0.00,Wunderground v.1.15,2013-02-01 06:15:00,
2013-02-01 01:20:00,42.0,32.6,30.07,SSE,147,4.0,5.0,69,0.00,,,0.00,Wunderground v.1.15,2013-02-01 06:20:00,
2013-02-01 01:25:00,42.7,32.9,30.08,WNW,285,5.0,5.0,68,0.00,,,0.00,Wunderground v.1.15,2013-02-01 06:25:00,
2013-02-01 01:34:00,43.4,33.2,30.08,SSW,212,5.0,10.0,67,0.00,,,0.00,Wunderground v.1.15,2013-02-01 06:34:00,
2013-02-01 01:44:00,43.8,33.9,30.09,SW,222,5.0,5.0,68,0.00,,,0.00,Wunderground v.1.15,2013-02-01 06:44:00,
2013-02-01 01:49:00,43.7,34.6,30.10,WNW,302,4.0,4.0,70,0.00,,,0.00,Wunderground v.1.15,2013-02-01 06:49:00,
2013-02-01 01:55:00,43.3,35.9,30.10,WSW,250,4.0,6.0,75,0.00,,,0.00,Wunderground v.1.15,2013-02-01 06:55:00,
2013-02-01 02:00:00,42.8,36.1,30.11,WSW,241,5.0,6.0,77,0.00,,,0.00,Wunderground v.1.15,2013-02-01 07:00:00,
2013-02-01 02:09:00,41.6,35.9,30.12,WNW,291,5.0,7.0,80,0.00,,,0.00,Wunderground v.1.15,2013-02-01 07:09:00,
2013-02-01 02:14:00,41.0,35.3,30.13,West,275,4.0,7.0,80,0.00,,,0.00,Wunderground v.1.15,2013-02-01 07:14:00,
2013-02-01 02:19:00,40.3,34.9,30.13,NW,312,5.0,8.0,81,0.00,,,0.01,Wunderground v.1.15,2013-02-01 07:19:00,
2013-02-01 02:24:00,39.5,34.5,30.14,NW,306,6.0,8.0,82,0.00,,,0.01,Wunderground v.1.15,2013-02-01 07:24:00,
2013-02-01 02:29:00,38.8,33.8,30.14,West,275,5.0,5.0,82,0.00,,,0.01,Wunderground v.1.15,2013-02-01 07:29:00,
2013-02-01 02:34:00,38.3,33.6,30.15,SSE,159,4.0,5.0,83,0.00,,,0.01,Wunderground v.1.15,2013-02-01 07:34:00,
2013-02-01 02:40:00,37.7,32.4,30.15,WSW,240,5.0,12.0,81,0.00,,,0.01,Wunderground v.1.15,2013-02-01 07:40:00,
2013-02-01 02:45:00,37.1,31.8,30.15,WNW,285,6.0,12.0,81,0.00,,,0.01,Wunderground v.1.15,2013-02-01 07:45:00,
2013-02-01 02:50:00,36.8,31.8,30.15,WSW,255,5.0,5.0,82,0.00,,,0.01,Wunderground v.1.15,2013-02-01 07:50:00,
2013-02-01 02:55:00,36.5,31.5,30.15,WNW,293,5.0,5.0,82,0.00,,,0.01,Wunderground v.1.15,2013-02-01 07:55:00,
2013-02-01 03:00:00,36.2,31.5,30.15,WSW,250,3.0,3.0,83,0.00,,,0.01,Wunderground v.1.15,2013-02-01 08:00:00,
2013-02-01 03:09:00,35.9,31.2,30.16,West,275,3.0,4.0,83,0.00,,,0.01,Wunderground v.1.15,2013-02-01 08:09:00,
2013-02-01 03:14:00,35.7,30.4,30.16,West,266,4.0,6.0,81,0.00,,,0.01,Wunderground v.1.15,2013-02-01 08:14:00,
2013-02-01 03:25:00,35.3,29.7,30.16,WNW,289,4.0,11.0,80,0.00,,,0.01,Wunderground v.1.15,2013-02-01 08:25:00,
2013-02-01 03:30:00,35.3,29.7,30.17,NW,323,3.0,3.0,80,0.00,,,0.01,Wunderground v.1.15,2013-02-01 08:30:00,
2013-02-01 03:35:00,35.1,29.9,30.16,NNW,327,3.0,3.0,81,0.00,,,0.01,Wunderground v.1.15,2013-02-01 08:35:00,
2013-02-01 03:44:00,34.7,28.9,30.17,NNW,330,3.0,7.0,79,0.00,,,0.01,Wunderground v.1.15,2013-02-01 08:44:00,
2013-02-01 03:49:00,34.4,28.2,30.17,NW,317,4.0,5.0,78,0.00,,,0.01,Wunderground v.1.15,2013-02-01 08:49:00,
2013-02-01 04:00:00,33.9,27.8,30.18,West,262,4.0,5.0,78,0.00,,,0.01,Wunderground v.1.15,2013-02-01 09:00:00,
2013-02-01 04:10:00,33.0,26.6,30.19,NNE,14,6.0,6.0,77,0.00,,,0.01,Wunderground v.1.15,2013-02-01 09:10:00,
2013-02-01 04:15:00,32.5,26.4,30.19,SW,231,5.0,8.0,78,0.00,,,0.01,Wunderground v.1.15,2013-02-01 09:15:00,
2013-02-01 04:24:00,31.9,25.5,30.20,WNW,295,4.0,6.0,77,0.00,,,0.01,Wunderground v.1.15,2013-02-01 09:24:00,
2013-02-01 04:34:00,31.2,23.5,30.21,WSW,239,3.0,8.0,73,0.00,,,0.01,Wunderground v.1.15,2013-02-01 09:34:00,
2013-02-01 04:39:00,30.9,23.3,30.21,West,270,4.0,4.0,73,0.00,,,0.01,Wunderground v.1.15,2013-02-01 09:39:00,
2013-02-01 04:44:00,30.6,22.3,30.22,WNW,286,4.0,4.0,71,0.00,,,0.01,Wunderground v.1.15,2013-02-01 09:44:00,
2013-02-01 04:50:00,30.3,21.7,30.22,West,275,4.0,6.0,70,0.00,,,0.01,Wunderground v.1.15,2013-02-01 09:50:00,
2013-02-01 04:55:00,29.9,21.6,30.23,NW,320,5.0,6.0,71,0.00,,,0.01,Wunderground v.1.15,2013-02-01 09:55:00,
2013-02-01 05:00:00,29.7,21.1,30.23,SW,221,5.0,5.0,70,0.00,,,0.01,Wunderground v.1.15,2013-02-01 10:00:00,
2013-02-01 05:10:00,29.1,19.8,30.24,NE,38,3.0,3.0,68,0.00,,,0.01,Wunderground v.1.15,2013-02-01 10:10:00,
2013-02-01 05:19:00,28.7,19.8,30.25,NNW,342,3.0,3.0,69,0.00,,,0.01,Wunderground v.1.15,2013-02-01 10:19:00,
2013-02-01 05:24:00,28.5,20.0,30.25,North,2,2.0,3.0,70,0.00,,,0.01,Wunderground v.1.15,2013-02-01 10:24:00,
2013-02-01 05:29:00,28.4,19.9,30.25,NW,319,2.0,2.0,70,0.00,,,0.01,Wunderground v.1.15,2013-02-01 10:29:00,
2013-02-01 05:35:00,28.2,20.0,30.25,West,262,2.0,2.0,71,0.00,,,0.01,Wunderground v.1.15,2013-02-01 10:35:00,
2013-02-01 05:45:00,28.0,19.8,30.26,ESE,117,1.0,5.0,71,0.00,,,0.01,Wunderground v.1.15,2013-02-01 10:45:00,
2013-02-01 05:50:00,27.8,19.3,30.27,ENE,73,2.0,6.0,70,0.00,,,0.01,Wunderground v.1.15,2013-02-01 10:50:00,
2013-02-01 05:55:00,27.5,18.3,30.27,WSW,253,4.0,6.0,68,0.00,,,0.01,Wunderground v.1.15,2013-02-01 10:55:00,
2013-02-01 06:04:00,26.9,17.7,30.28,NNE,26,4.0,6.0,68,0.00,,,0.01,Wunderground v.1.15,2013-02-01 11:04:00,
2013-02-01 06:09:00,26.7,17.6,30.30,North,352,3.0,3.0,68,0.00,,,0.01,Wunderground v.1.15,2013-02-01 11:09:00,
2013-02-01 06:19:00,26.1,16.3,30.30,WNW,302,2.0,4.0,66,0.00,,,0.01,Wunderground v.1.15,2013-02-01 11:19:00,
2013-02-01 06:24:00,25.8,16.0,30.30,NE,40,3.0,4.0,66,0.00,,,0.01,Wunderground v.1.15,2013-02-01 11:24:00,
2013-02-01 06:30:00,25.6,15.8,30.31,SW,218,3.0,3.0,66,0.00,,,0.01,Wunderground v.1.15,2013-02-01 11:30:00,
2013-02-01 06:35:00,25.4,15.6,30.31,ENE,58,2.0,3.0,66,0.00,,,0.01,Wunderground v.1.15,2013-02-01 11:35:00,
2013-02-01 06:44:00,25.0,15.9,30.31,WNW,300,1.0,5.0,68,0.00,,,0.01,Wunderground v.1.15,2013-02-01 11:44:00,
2013-02-01 06:54:00,24.7,16.0,30.32,NW,314,2.0,2.0,69,0.00,,,0.01,Wunderground v.1.15,2013-02-01 11:54:00,
2013-02-01 07:00:00,24.5,15.8,30.32,WSW,258,2.0,4.0,69,0.00,,,0.01,Wunderground v.1.15,2013-02-01 12:00:00,
2013-02-01 07:10:00,24.3,15.9,30.33,SSE,147,2.0,2.0,70,0.00,,,0.01,Wunderground v.1.15,2013-02-01 12:10:00,
2013-02-01 07:15:00,24.3,16.2,30.34,WNW,297,2.0,4.0,71,0.00,,,0.01,Wunderground v.1.15,2013-02-01 12:15:00,
2013-02-01 07:25:00,24.2,16.5,30.35,NW,326,2.0,6.0,72,0.00,,,0.01,Wunderground v.1.15,2013-02-01 12:25:00,
2013-02-01 07:34:00,23.8,15.4,30.36,North,5,3.0,4.0,70,0.00,,,0.01,Wunderground v.1.15,2013-02-01 12:34:00,
2013-02-01 07:39:00,23.5,14.5,30.36,NNE,15,4.0,4.0,68,0.00,,,0.01,Wunderground v.1.15,2013-02-01 12:39:00,
2013-02-01 07:44:00,23.2,14.5,30.36,North,11,3.0,6.0,69,0.00,,,0.01,Wunderground v.1.15,2013-02-01 12:44:00,
2013-02-01 07:50:00,23.0,14.3,30.37,NNE,21,3.0,3.0,69,0.00,,,0.01,Wunderground v.1.15,2013-02-01 12:50:00,
2013-02-01 07:55:00,22.7,13.7,30.37,NW,320,3.0,3.0,68,0.00,,,0.01,Wunderground v.1.15,2013-02-01 12:55:00,
2013-02-01 08:00:00,22.6,14.0,30.38,NNE,21,2.0,2.0,69,0.00,,,0.01,Wunderground v.1.15,2013-02-01 13:00:00,
2013-02-01 08:09:00,22.6,14.3,30.39,North,9,2.0,2.0,70,0.00,,,0.01,Wunderground v.1.15,2013-02-01 13:09:00,
2013-02-01 08:14:00,22.6,14.3,30.39,NNE,27,2.0,2.0,70,0.00,,,0.01,Wunderground v.1.15,2013-02-01 13:14:00,
2013-02-01 08:19:00,22.5,13.9,30.39,NNE,27,3.0,3.0,69,0.00,,,0.01,Wunderground v.1.15,2013-02-01 13:19:00,
2013-02-01 08:24:00,22.4,13.4,30.39,NE,52,2.0,3.0,68,0.00,,,0.01,Wunderground v.1.15,2013-02-01 13:24:00,
2013-02-01 08:29:00,22.2,13.6,30.39,North,352,2.0,4.0,69,0.00,,,0.01,Wunderground v.1.15,2013-02-01 13:29:00,
2013-02-01 08:35:00,22.1,13.1,30.39,NNE,26,2.0,4.0,68,0.00,,,0.01,Wunderground v.1.15,2013-02-01 13:35:00,
2013-02-01 08:40:00,22.0,13.0,30.39,NNW,337,2.0,3.0,68,0.00,,,0.01,Wunderground v.1.15,2013-02-01 13:40:00,
2013-02-01 08:45:00,22.1,13.8,30.39,NNE,22,2.0,3.0,70,0.00,,,0.01,Wunderground v.1.15,2013-02-01 13:45:00,
2013-02-01 08:50:00,22.2,13.6,30.40,West,262,2.0,4.0,69,0.00,,,0.01,Wunderground v.1.15,2013-02-01 13:50:00,
2013-02-01 09:00:00,22.5,14.2,30.40,North,11,2.0,2.0,70,0.00,,,0.01,Wunderground v.1.15,2013-02-01 14:00:00,
2013-02-01 09:09:00,23.0,15.0,30.40,NNE,22,3.0,5.0,71,0.00,,,0.01,Wunderground v.1.15,2013-02-01 14:09:00,
2013-02-01 09:14:00,23.2,14.9,30.41,North,352,3.0,5.0,70,0.00,,,0.01,Wunderground v.1.15,2013-02-01 14:14:00,
2013-02-01 09:20:00,23.4,15.1,30.41,North,352,4.0,4.0,70,0.00,,,0.01,Wunderground v.1.15,2013-02-01 14:20:00,
2013-02-01 09:25:00,23.5,14.5,30.41,WNW,301,3.0,4.0,68,0.00,,,0.01,Wunderground v.1.15,2013-02-01 14:25:00,
2013-02-01 09:34:00,23.8,14.4,30.42,ENE,58,2.0,3.0,67,0.00,,,0.01,Wunderground v.1.15,2013-02-01 14:34:00,
2013-02-01 09:44:00,23.9,14.5,30.42,NW,316,3.0,3.0,67,0.00,,,0.01,Wunderground v.1.15,2013-02-01 14:44:00,
2013-02-01 09:49:00,24.1,14.0,30.42,North,352,3.0,4.0,65,0.00,,,0.01,Wunderground v.1.15,2013-02-01 14:49:00,
2013-02-01 09:54:00,24.2,13.8,30.43,NE,55,3.0,4.0,64,0.00,,,0.01,Wunderground v.1.15,2013-02-01 14:54:00,
2013-02-01 10:00:00,24.4,14.7,30.43,WSW,255,2.0,4.0,66,0.00,,,0.01,Wunderground v.1.15,2013-02-01 15:00:00,
2013-02-01 10:10:00,24.8,14.0,30.43,West,281,3.0,5.0,63,0.00,,,0.01,Wunderground v.1.15,2013-02-01 15:10:00,
2013-02-01 10:15:00,25.1,14.6,30.43,ENE,61,3.0,5.0,64,0.00,,,0.01,Wunderground v.1.15,2013-02-01 15:15:00,
2013-02-01 10:24:00,26.1,14.5,30.43,NNW,337,3.0,4.0,61,0.00,,,0.01,Wunderground v.1.15,2013-02-01 15:24:00,
2013-02-01 10:29:00,26.4,14.8,30.43,WNW,293,3.0,8.0,61,0.00,,,0.01,Wunderground v.1.15,2013-02-01 15:29:00,
2013-02-01 10:35:00,26.5,14.5,30.43,North,356,4.0,8.0,60,0.00,,,0.01,Wunderground v.1.15,2013-02-01 15:35:00,
2013-02-01 10:40:00,27.0,14.9,30.43,NE,40,4.0,6.0,60,0.00,,,0.01,Wunderground v.1.15,2013-02-01 15:40:00,
2013-02-01 10:45:00,27.4,14.5,30.43,NNE,28,3.0,6.0,58,0.00,,,0.01,Wunderground v.1.15,2013-02-01 15:45:00,
2013-02-01 10:55:00,28.2,14.9,30.43,North,352,3.0,6.0,57,0.00,,,0.01,Wunderground v.1.15,2013-02-01 15:55:00,
2013-02-01 11:04:00,28.9,14.7,30.43,NNW,338,2.0,8.0,55,0.00,,,0.01,Wunderground v.1.15,2013-02-01 16:04:00,
2013-02-01 11:09:00,29.1,16.1,30.43,NE,40,3.0,5.0,58,0.00,,,0.01,Wunderground v.1.15,2013-02-01 16:09:00,
2013-02-01 11:15:00,29.3,15.9,30.43,East,98,3.0,5.0,57,0.00,,,0.01,Wunderground v.1.15,2013-02-01 16:15:00,
2013-02-01 11:20:00,29.8,16.4,30.43,NE,46,2.0,2.0,57,0.00,,,0.01,Wunderground v.1.15,2013-02-01 16:20:00,
2013-02-01 11:25:00,30.2,16.0,30.43,NNE,15,2.0,2.0,55,0.00,,,0.01,Wunderground v.1.15,2013-02-01 16:25:00,
2013-02-01 11:30:00,30.6,15.0,30.43,ESE,110,2.0,2.0,52,0.00,,,0.01,Wunderground v.1.15,2013-02-01 16:30:00,
2013-02-01 11:35:00,30.8,15.2,30.43,NE,38,2.0,4.0,52,0.00,,,0.01,Wunderground v.1.15,2013-02-01 16:35:00,
2013-02-01 11:44:00,30.9,16.2,30.43,NE,49,2.0,4.0,54,0.00,,,0.01,Wunderground v.1.15,2013-02-01 16:44:00,
2013-02-01 11:49:00,31.2,16.0,30.42,NE,48,2.0,4.0,53,0.00,,,0.01,Wunderground v.1.15,2013-02-01 16:49:00,
2013-02-01 11:54:00,31.4,15.3,30.43,NW,312,3.0,4.0,51,0.00,,,0.01,Wunderground v.1.15,2013-02-01 16:54:00,
2013-02-01 12:00:00,31.6,16.0,30.43,NNW,342,3.0,3.0,52,0.00,,,0.01,Wunderground v.1.15,2013-02-01 17:00:00,
2013-02-01 12:10:00,31.9,15.8,30.43,West,271,4.0,4.0,51,0.00,,,0.01,Wunderground v.1.15,2013-02-01 17:10:00,
2013-02-01 12:19:00,32.2,15.6,30.43,NNE,24,3.0,3.0,50,0.00,,,0.01,Wunderground v.1.15,2013-02-01 17:19:00,
2013-02-01 12:24:00,32.3,16.2,30.43,ENE,78,3.0,4.0,51,0.00,,,0.01,Wunderground v.1.15,2013-02-01 17:24:00,
2013-02-01 12:29:00,32.6,16.0,30.42,NNE,19,3.0,3.0,50,0.00,,,0.01,Wunderground v.1.15,2013-02-01 17:29:00,
2013-02-01 12:34:00,32.8,15.7,30.42,SW,221,2.0,3.0,49,0.00,,,0.01,Wunderground v.1.15,2013-02-01 17:34:00,
2013-02-01 12:39:00,33.0,16.4,30.42,WNW,295,2.0,3.0,50,0.00,,,0.01,Wunderground v.1.15,2013-02-01 17:39:00,
2013-02-01 12:45:00,33.2,17.0,30.41,East,87,2.0,3.0,51,0.00,,,0.01,Wunderground v.1.15,2013-02-01 17:45:00,
2013-02-01 12:50:00,33.7,17.9,30.41,NNE,24,2.0,2.0,52,0.00,,,0.01,Wunderground v.1.15,2013-02-01 17:50:00,
2013-02-01 12:55:00,33.8,17.6,30.41,North,358,2.0,2.0,51,0.00,,,0.01,Wunderground v.1.15,2013-02-01 17:55:00,
2013-02-01 13:04:00,34.3,17.1,30.40,SE,142,2.0,5.0,49,0.00,,,0.01,Wunderground v.1.15,2013-02-01 18:04:00,
2013-02-01 13:09:00,34.5,17.3,30.40,West,260,2.0,2.0,49,0.00,,,0.01,Wunderground v.1.15,2013-02-01 18:09:00,
2013-02-01 13:14:00,34.5,16.3,30.40,NW,314,4.0,4.0,47,0.00,,,0.01,Wunderground v.1.15,2013-02-01 18:14:00,
2013-02-01 13:20:00,34.5,16.3,30.40,West,267,3.0,3.0,47,0.00,,,0.01,Wunderground v.1.15,2013-02-01 18:20:00,
2013-02-01 13:25:00,34.6,16.4,30.40,ENE,69,2.0,3.0,47,0.00,,,0.01,Wunderground v.1.15,2013-02-01 18:25:00,
2013-02-01 13:30:00,34.6,15.9,30.39,NNE,13,2.0,2.0,46,0.00,,,0.01,Wunderground v.1.15,2013-02-01 18:30:00,
2013-02-01 13:39:00,34.4,16.7,30.39,ENE,70,3.0,7.0,48,0.00,,,0.01,Wunderground v.1.15,2013-02-01 18:39:00,
2013-02-01 13:44:00,34.6,17.4,30.39,East,85,3.0,7.0,49,0.00,,,0.01,Wunderground v.1.15,2013-02-01 18:44:00,
2013-02-01 13:49:00,34.9,17.2,30.39,West,281,4.0,5.0,48,0.00,,,0.01,Wunderground v.1.15,2013-02-01 18:49:00,
2013-02-01 13:54:00,35.2,16.5,30.38,West,273,3.0,7.0,46,0.00,,,0.01,Wunderground v.1.15,2013-02-01 18:54:00,
2013-02-01 14:00:00,35.4,18.1,30.38,NE,55,2.0,2.0,49,0.00,,,0.01,Wunderground v.1.15,2013-02-01 19:00:00,
2013-02-01 14:10:00,35.4,15.6,30.38,NE,55,2.0,2.0,44,0.00,,,0.01,Wunderground v.1.15,2013-02-01 19:10:00,
2013-02-01 14:20:00,35.4,15.1,30.38,WNW,287,2.0,3.0,43,0.00,,,0.01,Wunderground v.1.15,2013-02-01 19:20:00,
2013-02-01 14:29:00,35.4,15.1,30.38,North,4,2.0,3.0,43,0.00,,,0.01,Wunderground v.1.15,2013-02-01 19:29:00,
2013-02-01 14:34:00,35.3,13.9,30.38,West,271,2.0,3.0,41,0.00,,,0.01,Wunderground v.1.15,2013-02-01 19:34:00,
2013-02-01 14:39:00,35.5,15.2,30.38,SSE,166,2.0,2.0,43,0.00,,,0.01,Wunderground v.1.15,2013-02-01 19:39:00,
2013-02-01 14:44:00,35.5,15.2,30.38,North,359,1.0,2.0,43,0.00,,,0.01,Wunderground v.1.15,2013-02-01 19:44:00,
2013-02-01 14:49:00,35.7,14.8,30.38,West,268,2.0,2.0,42,0.00,,,0.01,Wunderground v.1.15,2013-02-01 19:49:00,
2013-02-01 14:55:00,35.7,14.3,30.38,NE,40,3.0,6.0,41,0.00,,,0.01,Wunderground v.1.15,2013-02-01 19:55:00,
2013-02-01 15:00:00,35.3,11.6,30.38,West,275,3.0,3.0,37,0.00,,,0.01,Wunderground v.1.15,2013-02-01 20:00:00,
2013-02-01 15:09:00,35.4,14.0,30.38,NNE,33,2.0,4.0,41,0.00,,,0.01,Wunderground v.1.15,2013-02-01 20:09:00,
2013-02-01 15:14:00,35.2,14.9,30.38,NE,45,2.0,4.0,43,0.00,,,0.01,Wunderground v.1.15,2013-02-01 20:14:00,
2013-02-01 15:19:00,35.1,13.2,30.38,NNE,29,3.0,3.0,40,0.00,,,0.01,Wunderground v.1.15,2013-02-01 20:19:00,
2013-02-01 15:29:00,34.9,12.4,30.38,WSW,256,2.0,4.0,39,0.00,,,0.01,Wunderground v.1.15,2013-02-01 20:29:00,
2013-02-01 15:35:00,34.8,14.0,30.38,NW,310,2.0,4.0,42,0.00,,,0.01,Wunderground v.1.15,2013-02-01 20:35:00,
2013-02-01 15:40:00,34.7,12.8,30.37,West,266,1.0,1.0,40,0.00,,,0.01,Wunderground v.1.15,2013-02-01 20:40:00,
2013-02-01 15:45:00,34.6,12.1,30.37,NE,56,1.0,2.0,39,0.00,,,0.01,Wunderground v.1.15,2013-02-01 20:45:00,
2013-02-01 15:54:00,34.4,14.7,30.37,ESE,102,1.0,1.0,44,0.00,,,0.01,Wunderground v.1.15,2013-02-01 20:54:00,
2013-02-01 16:00:00,34.4,12.5,30.37,ENE,65,1.0,1.0,40,0.00,,,0.01,Wunderground v.1.15,2013-02-01 21:00:00,
2013-02-01 16:09:00,34.6,13.3,30.37,West,278,1.0,1.0,41,0.00,,,0.01,Wunderground v.1.15,2013-02-01 21:09:00,
2013-02-01 16:15:00,34.6,13.3,30.37,West,271,1.0,1.0,41,0.00,,,0.01,Wunderground v.1.15,2013-02-01 21:15:00,
2013-02-01 16:20:00,34.6,13.3,30.37,WNW,285,1.0,1.0,41,0.00,,,0.01,Wunderground v.1.15,2013-02-01 21:20:00,
2013-02-01 16:29:00,34.5,13.7,30.37,NE,38,2.0,2.0,42,0.00,,,0.01,Wunderground v.1.15,2013-02-01 21:29:00,
2013-02-01 16:34:00,34.5,13.7,30.36,NE,38,1.0,2.0,42,0.00,,,0.01,Wunderground v.1.15,2013-02-01 21:34:00,
2013-02-01 16:39:00,34.4,14.7,30.37,NNE,19,1.0,1.0,44,0.00,,,0.01,Wunderground v.1.15,2013-02-01 21:39:00,
2013-02-01 16:44:00,34.4,14.2,30.37,ENE,63,1.0,4.0,43,0.00,,,0.01,Wunderground v.1.15,2013-02-01 21:44:00,
2013-02-01 16:49:00,34.3,13.6,30.36,ENE,71,1.0,1.0,42,0.00,,,0.01,Wunderground v.1.15,2013-02-01 21:49:00,
2013-02-01 16:55:00,34.3,13.6,30.36,North,352,0.0,1.0,42,0.00,,,0.01,Wunderground v.1.15,2013-02-01 21:55:00,
2013-02-01 17:00:00,34.2,12.9,30.36,WNW,299,1.0,1.0,41,0.00,,,0.01,Wunderground v.1.15,2013-02-01 22:00:00,
2013-02-01 17:09:00,34.1,12.8,30.36,NW,310,0.0,0.0,41,0.00,,,0.01,Wunderground v.1.15,2013-02-01 22:09:00,
2013-02-01 17:14:00,34.0,13.8,30.36,NW,310,0.0,0.0,43,0.00,,,0.01,Wunderground v.1.15,2013-02-01 22:14:00,
2013-02-01 17:19:00,33.9,13.7,30.36,NW,311,0.0,1.0,43,0.00,,,0.01,Wunderground v.1.15,2013-02-01 22:19:00,
2013-02-01 17:24:00,33.8,14.7,30.36,NNW,342,1.0,1.0,45,0.00,,,0.01,Wunderground v.1.15,2013-02-01 22:24:00,
2013-02-01 17:29:00,33.7,14.6,30.36,NNE,22,1.0,1.0,45,0.00,,,0.01,Wunderground v.1.15,2013-02-01 22:29:00,
2013-02-01 17:35:00,33.6,14.0,30.36,NNE,21,0.0,1.0,44,0.00,,,0.01,Wunderground v.1.15,2013-02-01 22:35:00,
2013-02-01 17:40:00,33.4,14.8,30.37,NNE,25,1.0,1.0,46,0.00,,,0.01,Wunderground v.1.15,2013-02-01 22:40:00,
2013-02-01 17:45:00,33.4,14.8,30.37,NW,304,0.0,1.0,46,0.00,,,0.01,Wunderground v.1.15,2013-02-01 22:45:00,
2013-02-01 17:50:00,33.3,15.2,30.37,NW,304,0.0,0.0,47,0.00,,,0.01,Wunderground v.1.15,2013-02-01 22:50:00,
2013-02-01 18:00:00,33.0,14.9,30.37,NW,304,0.0,1.0,47,0.00,,,0.01,Wunderground v.1.15,2013-02-01 23:00:00,
2013-02-01 18:09:00,32.6,14.1,30.37,West,280,0.0,0.0,46,0.00,,,0.01,Wunderground v.1.15,2013-02-01 23:09:00,
2013-02-01 18:15:00,32.5,14.5,30.37,West,281,0.0,0.0,47,0.00,,,0.01,Wunderground v.1.15,2013-02-01 23:15:00,
2013-02-01 18:25:00,32.2,16.1,30.37,West,281,0.0,0.0,51,0.00,,,0.01,Wunderground v.1.15,2013-02-01 23:25:00,
2013-02-01 18:30:00,31.9,14.9,30.37,West,280,0.0,0.0,49,0.00,,,0.01,Wunderground v.1.15,2013-02-01 23:30:00,
2013-02-01 18:35:00,31.7,16.5,30.38,West,281,0.0,0.0,53,0.00,,,0.01,Wunderground v.1.15,2013-02-01 23:35:00,
2013-02-01 18:44:00,31.1,18.0,30.38,West,281,0.0,0.0,58,0.00,,,0.01,Wunderground v.1.15,2013-02-01 23:44:00,
2013-02-01 18:49:00,30.8,17.7,30.38,West,281,0.0,0.0,58,0.00,,,0.01,Wunderground v.1.15,2013-02-01 23:49:00,
2013-02-01 19:00:00,30.1,17.9,30.38,West,281,0.0,0.0,60,0.00,,,0.01,Wunderground v.1.15,2013-02-02 00:00:00,
2013-02-01 19:09:00,29.4,18.7,30.38,West,281,0.0,0.0,64,0.00,,,0.01,Wunderground v.1.15,2013-02-02 00:09:00,
2013-02-01 19:15:00,29.1,18.1,30.38,West,281,0.0,0.0,63,0.00,,,0.01,Wunderground v.1.15,2013-02-02 00:15:00,
2013-02-01 19:20:00,28.9,17.9,30.38,West,281,0.0,0.0,63,0.00,,,0.01,Wunderground v.1.15,2013-02-02 00:20:00,
2013-02-01 19:30:00,28.4,17.4,30.39,West,281,0.0,0.0,63,0.00,,,0.01,Wunderground v.1.15,2013-02-02 00:30:00,
2013-02-01 19:39:00,27.9,15.8,30.38,West,280,0.0,0.0,60,0.00,,,0.01,Wunderground v.1.15,2013-02-02 00:39:00,
2013-02-01 19:44:00,27.8,16.5,30.39,West,280,0.0,0.0,62,0.00,,,0.01,Wunderground v.1.15,2013-02-02 00:44:00,
2013-02-01 19:49:00,27.7,16.7,30.39,West,273,0.0,0.0,63,0.00,,,0.01,Wunderground v.1.15,2013-02-02 00:49:00,
2013-02-01 19:55:00,27.6,17.7,30.39,SSE,156,0.0,2.0,66,0.00,,,0.01,Wunderground v.1.15,2013-02-02 00:55:00,
2013-02-01 20:00:00,27.6,18.4,30.38,ESE,113,1.0,1.0,68,0.00,,,0.01,Wunderground v.1.15,2013-02-02 01:00:00,
2013-02-01 20:09:00,27.3,17.8,30.38,ESE,106,0.0,0.0,67,0.00,,,0.01,Wunderground v.1.15,2013-02-02 01:09:00,
2013-02-01 20:14:00,27.2,17.7,30.38,ESE,106,0.0,0.0,67,0.00,,,0.01,Wunderground v.1.15,2013-02-02 01:14:00,
2013-02-01 20:19:00,27.0,18.5,30.39,ESE,106,0.0,0.0,70,0.00,,,0.01,Wunderground v.1.15,2013-02-02 01:19:00,
2013-02-01 20:24:00,26.9,18.4,30.39,ESE,106,0.0,0.0,70,0.00,,,0.01,Wunderground v.1.15,2013-02-02 01:24:00,
2013-02-01 20:29:00,26.9,18.7,30.39,ESE,106,0.0,0.0,71,0.00,,,0.01,Wunderground v.1.15,2013-02-02 01:29:00,
2013-02-01 20:34:00,26.7,18.9,30.39,ESE,106,0.0,0.0,72,0.00,,,0.01,Wunderground v.1.15,2013-02-02 01:34:00,
2013-02-01 20:39:00,26.6,18.8,30.39,ESE,106,0.0,0.0,72,0.00,,,0.01,Wunderground v.1.15,2013-02-02 01:39:00,
2013-02-01 20:45:00,26.4,18.6,30.39,ESE,106,0.0,0.0,72,0.00,,,0.01,Wunderground v.1.15,2013-02-02 01:45:00,
2013-02-01 20:54:00,26.1,18.6,30.39,ESE,106,0.0,0.0,73,0.00,,,0.01,Wunderground v.1.15,2013-02-02 01:54:00,
2013-02-01 21:00:00,26.0,18.5,30.39,ESE,106,0.0,0.0,73,0.00,,,0.01,Wunderground v.1.15,2013-02-02 02:00:00,
2013-02-01 21:09:00,25.6,18.8,30.38,ESE,106,0.0,0.0,75,0.00,,,0.01,Wunderground v.1.15,2013-02-02 02:09:00,
2013-02-01 21:14:00,25.4,18.6,30.39,ESE,106,0.0,0.0,75,0.00,,,0.01,Wunderground v.1.15,2013-02-02 02:14:00,
2013-02-01 21:20:00,25.3,18.8,30.39,ESE,106,0.0,0.0,76,0.00,,,0.01,Wunderground v.1.15,2013-02-02 02:20:00,
2013-02-01 21:25:00,25.1,18.3,30.39,ESE,106,0.0,0.0,75,0.00,,,0.01,Wunderground v.1.15,2013-02-02 02:25:00,
2013-02-01 21:30:00,25.0,18.5,30.39,ESE,106,0.0,0.0,76,0.00,,,0.01,Wunderground v.1.15,2013-02-02 02:30:00,
2013-02-01 21:39:00,24.7,18.5,30.39,ESE,106,0.0,0.0,77,0.00,,,0.01,Wunderground v.1.15,2013-02-02 02:39:00,
2013-02-01 21:44:00,24.5,18.6,30.39,ESE,106,0.0,0.0,78,0.00,,,0.01,Wunderground v.1.15,2013-02-02 02:44:00,
2013-02-01 21:49:00,24.4,18.5,30.39,ESE,106,0.0,0.0,78,0.00,,,0.01,Wunderground v.1.15,2013-02-02 02:49:00,
2013-02-01 21:54:00,24.3,19.0,30.39,ESE,106,0.0,0.0,80,0.00,,,0.01,Wunderground v.1.15,2013-02-02 02:54:00,
2013-02-01 22:00:00,24.2,18.9,30.40,ESE,106,0.0,0.0,80,0.00,,,0.01,Wunderground v.1.15,2013-02-02 03:00:00,
2013-02-01 22:10:00,24.0,19.0,30.40,ESE,106,0.0,0.0,81,0.00,,,0.01,Wunderground v.1.15,2013-02-02 03:10:00,
2013-02-01 22:15:00,23.9,18.9,30.39,ESE,106,0.0,0.0,81,0.00,,,0.01,Wunderground v.1.15,2013-02-02 03:15:00,
2013-02-01 22:25:00,23.7,18.7,30.39,ESE,106,0.0,0.0,81,0.00,,,0.01,Wunderground v.1.15,2013-02-02 03:25:00,
2013-02-01 22:34:00,23.5,18.8,30.40,ESE,106,0.0,0.0,82,0.00,,,0.01,Wunderground v.1.15,2013-02-02 03:34:00,
2013-02-01 22:39:00,23.4,18.4,30.40,ESE,106,0.0,0.0,81,0.00,,,0.01,Wunderground v.1.15,2013-02-02 03:39:00,
2013-02-01 22:44:00,23.3,18.3,30.39,ESE,106,0.0,0.0,81,0.00,,,0.01,Wunderground v.1.15,2013-02-02 03:44:00,
2013-02-01 22:49:00,23.2,18.5,30.39,ESE,106,0.0,0.0,82,0.00,,,0.01,Wunderground v.1.15,2013-02-02 03:49:00,
2013-02-01 22:54:00,23.0,18.3,30.39,ESE,106,0.0,0.0,82,0.00,,,0.01,Wunderground v.1.15,2013-02-02 03:54:00,
2013-02-01 23:00:00,22.9,18.2,30.39,ESE,106,0.0,0.0,82,0.00,,,0.01,Wunderground v.1.15,2013-02-02 04:00:00,
2013-02-01 23:09:00,22.6,18.2,30.40,ESE,106,0.0,0.0,83,0.00,,,0.01,Wunderground v.1.15,2013-02-02 04:09:00,
2013-02-01 23:14:00,22.5,18.1,30.40,ESE,106,0.0,0.0,83,0.00,,,0.01,Wunderground v.1.15,2013-02-02 04:14:00,
2013-02-01 23:19:00,22.5,18.1,30.40,ESE,106,0.0,0.0,83,0.00,,,0.01,Wunderground v.1.15,2013-02-02 04:19:00,
2013-02-01 23:24:00,22.3,18.5,30.40,ESE,106,0.0,0.0,85,0.00,,,0.01,Wunderground v.1.15,2013-02-02 04:24:00,
2013-02-01 23:34:00,22.2,18.4,30.40,ESE,106,0.0,0.0,85,0.00,,,0.01,Wunderground v.1.15,2013-02-02 04:34:00,
2013-02-01 23:40:00,22.1,18.3,30.40,ESE,106,0.0,0.0,85,0.00,,,0.01,Wunderground v.1.15,2013-02-02 04:40:00,
2013-02-01 23:45:00,22.0,18.2,30.39,ESE,106,0.0,0.0,85,0.00,,,0.01,Wunderground v.1.15,2013-02-02 04:45:00,
2013-02-01 23:50:00,22.0,18.5,30.39,ESE,106,0.0,0.0,86,0.00,,,0.01,Wunderground v.1.15,2013-02-02 04:50:00,